Regional Weather Roundup
Issued by NWS

Home | Current Version | Previous Version | Text Only | Print | Product List | Glossary On
Versions: 1 2 3 4 5 6 7 8 9 10 11 12 13 14 15 16 17 18 19 20 21 22 23 24 25 26 27 28 29 30 31 32 33 34 35 36 37 38 39 40 41 42 43 44 45 46 47
000
ASCA42 TJSJ 022010
RWRPR
PUERTO RICO/U.S. VIRGIN ISLANDS HOURLY WEATHER ROUNDUP
NATIONAL WEATHER SERVICE SAN JUAN PR
400 PM AST MON MAR 02 2015

PRZ001-004-022100-
PUERTO RICO

CITY           SKY/WX    TMP DP  RH WIND       PRES   REMARKS
SAN JUAN LMM   MOSUNNY   81  70  69 E15       30.02F
PONCE          MOSUNNY   82  66  57 S12G17    29.95
AGUADILLA      MOSUNNY   81  68  65 NE16      30.04F
CEIBA          PTSUNNY  N/A N/A N/A NE9       30.04F
$$

PRZ006-007-022100-
U.S. VIRGIN ISLANDS

CITY           SKY/WX    TMP DP  RH WIND       PRES   REMARKS
CHRISTIANSTED  MOSUNNY   81  64  57 NE17G25   30.00F
$$

HOURLY WEATHER ROUNDUP FOR THE NEWS MEDIA

CITY           SKY/WX    TMP DP  RH WIND       PRES   REMARKS
ORLANDO        MOSUNNY   80  64  58 N6        30.22F
NEW YORK       MOSUNNY   38  13  35 NW18G26   30.15R WCI  28
NEWARK         MOSUNNY   38  14  37 NW17G33   30.16R WCI  28
CHICAGO        CLOUDY    30  11  45 CALM      30.45F
HARTFORD       MOSUNNY   36  13  38 W21G28    29.99R WCI  25
BOSTON         PTSUNNY   34  12  40 NW21G31   29.98R WCI  22
DALLAS         CLOUDY    41  37  87 CALM      30.28F FOG
PHILADELPHIA   MOSUNNY   39  14  36 W21       30.23R WCI  29
LOS ANGELES    PTSUNNY   56  44  64 S6        29.92F
WASHINGTON DC  MOSUNNY   41  15  35 NW15      30.29R


USA.gov is the U.S. government's official web portal to all federal, state and local government web resources and services.